Location: Marais
(33.9167°S, 25.5833°E)
Time: 23:56:21
(UTC+00:00)

Daily predictions for brighter satellites

Satellite Brightness Start Highest point End
(mag) Time Altitude Azimuth Time Altitude Azimuth Time Altitude Azimuth
X-37B 2.0 16:34:02 10° SW 16:36:51 27° SSE 16:39:39 10° E
Cosmos 1378 Rocket 4.5 16:44:47 10° NNE 16:48:26 27° E 16:52:09 10° SSE
NOSS 3-4 (A) 4.2 16:42:26 10° SW 16:49:03 59° WNW 16:55:02 10° NNE
NOSS 3-4 (C) 4.2 16:42:33 10° SW 16:49:10 59° WNW 16:55:09 10° NNE
Cosmos 773 Rocket 4.4 16:44:26 10° N 16:49:21 41° E 16:54:21 10° SSE
Cosmos 2150 Rocket 4.5 16:44:40 10° SSW 16:49:50 66° WNW 16:55:01 10° N
Cosmos 2151 Rocket 4.2 16:46:50 10° SSE 16:50:56 35° E 16:54:59 10° NE
Okean O Rocket 2.5 16:47:49 10° S 16:52:12 55° WSW 16:56:32 10° NNW
CZ-3 Stage 3 1.9 16:49:43 10° W 16:52:33 50° N 16:55:13 13° ENE
CZ-4 R/B 2.7 16:50:03 10° SE 16:53:13 21° E 16:56:24 10° NE
COSMOS 2455 4.0 16:48:52 10° S 16:53:37 24° SE 16:57:33 13° E
Cosmos 2034 Rocket 4.4 16:47:40 10° S 16:53:41 42° E 16:59:39 10° NNE
NOAA 12 4.3 16:49:13 10° S 16:54:34 79° WSW 16:59:50 10° NNW
NOAA 11 4.2 16:50:34 10° SSE 16:56:02 59° E 17:01:26 10° N
Orbus 7S? 3.8 16:53:35 10° NW 16:58:43 59° SW 17:01:35 10° SSE
Cosmos 2221 Rocket 4.0 16:56:16 10° NNW 17:00:43 67° W 17:05:12 10° S
Cosmos 1125 Rocket 3.6 16:55:44 10° SSW 17:01:01 81° WNW 17:06:18 10° NNE
GP-B 3.9 17:04:44 10° N 17:09:07 55° W 17:13:33 10° SSW
ATLAS 2AS CENTAUR R/B 3.6 17:03:04 10° SW 17:09:45 53° WNW 17:16:56 10° N
SeaSat 1 2.9 17:07:59 10° SSE 17:12:55 66° WSW 17:17:48 10° NW
Cosmos 1378 3.1 17:09:16 10° N 17:12:59 65° E 17:16:46 10° SSE
H-2A ROCKET BODY 3.9 17:09:01 10° NW 17:14:21 49° NNE 17:30:46 17° E
CZ-4C R/B 2.2 17:10:13 10° SSW 17:15:18 45° SE 17:18:02 22° ENE
Cosmos 1538 Rocket 4.3 17:12:40 10° N 17:17:46 46° ENE 17:22:56 10° SSE
H-2A R/B 3.6 17:14:36 10° SE 17:16:00 15° ESE 17:16:00 15° ESE
Cosmos 1271 Rocket 2.7 17:14:21 10° N 17:18:17 87° WSW 17:22:12 10° S
Okean 2 4.3 17:19:28 26° ENE 17:20:02 27° E 17:23:34 10° SSE
CZ-4 R/B 4.3 17:22:07 10° SSE 17:26:19 78° ENE 17:30:27 10° N
SL-24 R/B 4.3 17:21:52 10° SSE 17:27:01 85° ENE 17:31:35 10° NNW
DMSP B5D2-2 4.1 17:23:11 10° NNE 17:28:28 86° WNW 17:33:48 10° SSW
Aureole 2 Rocket 3.7 17:26:37 10° S 17:28:04 21° SSE 17:28:04 21° SSE
Cosmos 2278 Rocket 2.3 17:24:03 10° SSW 17:29:41 56° ESE 17:33:18 22° NE
IRS-1C Rocket 4.2 17:25:23 10° S 17:30:44 81° WSW 17:36:01 10° NNW
FALCON 9 DEB 4.2 17:28:35 10° NNW 17:30:40 27° NNE 17:30:40 27° NNE
USA 276 4.4 17:29:47 10° S 17:31:32 14° SSE 17:31:32 14° SSE
Milstar 3 4.5 17:29:15 10° WNW 17:34:31 24° NNW 17:40:50 10° NNE
Cosmos 1766 3.8 17:31:08 10° S 17:34:29 37° ESE 17:34:29 37° ESE
FALCON 9 DEB 4.3 17:36:48 10° NNW 17:38:45 29° N 17:38:45 29° N
DNEPR-1 R/B 4.4 17:36:28 10° NW 17:40:44 54° WSW 17:45:46 10° SSE
CZ-2C R/B 3.1 17:36:42 10° SSE 17:41:18 45° E 17:45:55 10° N
RESURS DK-1 2.7 17:44:27 10° S 17:48:07 46° SE 17:48:07 46° SE
Helios 1A Rocket 4.0 17:46:02 10° S 17:49:57 46° WSW 17:53:51 10° NNW
Cosmos 1939 Rocket 4.3 17:46:30 10° S 17:50:15 39° WSW 17:54:00 10° NW
Okean-O 2.9 17:45:53 10° S 17:50:22 70° WSW 17:54:48 10° NNW
Okean 1 Rocket 2.9 17:47:47 10° S 17:52:15 82° E 17:53:47 41° NNE
USA 215 3.2 17:45:56 10° SE 17:52:34 86° NE 17:59:09 10° NW
Cosmos 1340 Rocket 4.2 17:50:47 10° S 17:52:48 26° SSE 17:52:48 26° SSE
Delta 2 Rocket 4.3 17:50:50 10° NW 17:56:04 45° NNE 17:56:12 44° NNE
Hubble Space Telescope 2.9 17:55:13 10° NNW 17:56:33 15° N 17:56:33 15° N
CSL-04 Debris 4.1 17:55:12 10° SSE 18:00:42 66° ENE 18:06:06 10° N
OAO 3 Rocket 3.4 17:56:42 10° NW 18:00:52 51° N 18:00:52 51° N
CZ-2C R/B 4.4 18:00:42 10° NNW 18:05:43 33° W 18:10:44 10° SSW
YAOGAN 1 3.0 18:01:42 10° S 18:06:03 62° WSW 18:10:19 10° NNW
SL-16 R/B 2.0 18:02:01 10° NNW 18:07:41 81° ENE 18:13:24 10° SSE
CSL-04 Rocket 3.4 18:05:08 10° SSE 18:10:29 77° ENE 18:15:48 10° N
Cosmos 2237 Rocket 4.0 18:05:54 10° NW 18:10:54 31° WSW 18:15:58 10° S
Cosmos 2279 Rocket 4.4 18:05:56 10° S 18:11:02 44° SE 18:11:02 44° SE
X-37B 2.8 18:10:30 10° WSW 18:12:13 25° W 18:12:13 25° W
BREEZE-M DEB (TANK) 3.2 18:10:24 10° NW 18:14:17 76° NE 18:27:09 10° SE
CZ-4 R/B 3.7 18:24:44 10° SSW 18:28:08 25° WSW 18:31:33 10° NW
COSMOS 2455 3.5 18:34:00 10° SW 18:39:47 50° WNW 18:40:46 45° NW
Cosmos 1943 Rocket 4.1 18:37:26 10° S 18:39:17 19° SSE 18:39:17 19° SSE
H-2A R/B 3.4 18:53:01 10° S 18:56:39 34° SW 18:56:39 34° SW
CZ-4C R/B 4.3 19:00:16 10° WSW 19:03:04 15° WNW 19:03:16 15° WNW
